Regional Weather Roundup
Issued by NWS

Home | Current Version | Previous Version | Text Only | Print | Product List | Glossary On
Versions: 1 2 3 4 5 6 7 8 9 10 11 12 13 14 15 16 17 18 19 20 21 22 23 24 25 26 27 28 29 30 31 32 33 34 35 36 37 38 39 40 41 42 43 44 45 46 47 48 49 50
000
ASUS44 KMEG 312210
RWRTN
TENNESSEE HOURLY STATE WEATHER ROUNDUP
NATIONAL WEATHER SERVICE MEMPHIS TN
500 PM CDT TUE MAR 31 2015

TNZ002-004-019-021-049-052-054-088>092-312300-
WEST TENNESSEE

CITY           SKY/WX    TMP DP  RH WIND       PRES   REMARKS
MEMPHIS INTL   MOSUNNY   79  59  50 SW10      29.90F
NWS MEMPHIS      N/A     77 N/A N/A MISG        N/A
JACKSON        SUNNY     79  52  38 N8        29.89F
DYERSBURG      SUNNY     79  46  31 SW5       29.89S
UNION CITY     SUNNY     73  55  53 N6        29.88R
PARIS          SUNNY     75  45  33 VRB3      29.89S
LEXINGTON      SUNNY     79  48  34 SW5       29.88R
SAVANNAH       MOSUNNY   77  57  50 W5        29.89F
$$

TNZ008-025-027-028-033-062-065-066-312300-
NORTH MIDDLE TENNESSEE

CITY           SKY/WX    TMP DP  RH WIND       PRES   REMARKS
NASHVILLE      MOSUNNY   80  43  26 NW10G20   29.86F
CLARKSVILLE    SUNNY     77  44  30 NW13      29.86F
SMYRNA         MOSUNNY   77  44  30 NW8       29.87F
COOKEVILLE     MOSUNNY   75  45  33 NW10        N/A
CROSSVILLE     MOSUNNY   71  42  35 W13       29.90F
$$

TNZ061-075-076-078-094-096-097-312300-
SOUTH MIDDLE TENNESSEE

CITY           SKY/WX    TMP DP  RH WIND       PRES   REMARKS
FAYETTEVILLE   MOSUNNY   72  55  56 W12       29.91S
TULLAHOMA      MOSUNNY   75  45  33 W9        29.90F
WINCHESTER     SUNNY     75  57  53 SW10      29.89F
MCMINNVILLE    SUNNY     75  45  33 W10       29.88F
COLUMBIA       MOSUNNY   81  48  32 VRB6      29.87S
SHELBYVILLE    SUNNY     81  45  28 W12       29.89F
$$

TNZ017-018-042-046-047-312300-
NORTHEAST TENNESSEE

CITY           SKY/WX    TMP DP  RH WIND       PRES   REMARKS
TRI CITIES     MOSUNNY   72  43  35 SW21G26   29.81F
ELIZABETHTON   PTCLDY    66  43  42 SW18      29.82F
$$

TNZ012-013-036-069-073-074-312300-
CENTRAL EAST TENNESSEE

CITY           SKY/WX    TMP DP  RH WIND       PRES   REMARKS
KNOXVILLE      PTSUNNY   74  47  38 W14       29.85S
OAK RIDGE      MOSUNNY   77  41  27 W10G21    29.86S
GATLINBURG     CLEAR     73  45  35 W13       29.84S
MORRISTOWN     PTCLDY    73  43  33 W13       29.84S
$$

TNZ083-085-099-312300-
SOUTHEAST TENNESSEE

CITY           SKY/WX    TMP DP  RH WIND       PRES   REMARKS
CHATTANOOGA    PTSUNNY   79  52  38 W12G21    29.87F
$$

SKY/WX REPORTED AS FAIR MEANS FEW OR NO CLOUDS BELOW
12 THOUSAND FEET.



USA.gov is the U.S. government's official web portal to all federal, state and local government web resources and services.